Station PTIM4 - 9099004 - Point Iroquois, MI Image indicating link to RSS feed of recent meteorological observations for station PTIM4


Conditions at PTIM4 as of
(4:30 pm EDT)
2030 GMT on 05/26/2024:
     

Click on the graph icon in the table below to see a time series plot of the last five days of that observation.

5-day plot - Atmospheric Pressure Atmospheric Pressure (PRES):29.79 in
5-day plot - Air Temperature Air Temperature (ATMP): 58.8 °F
5-day plot - Dew Point Dew Point (DEWP): 43.9 °F
5-day plot - Wind Speed at 10 Meters Wind Speed at 10 meters (WSPD10M): 7.8 kts
5-day plot - Wind Speed at 20 Meters Wind Speed at 20 meters (WSPD20M): 7.8 kts
NOS Water Level Observation Network Water Level
Previous observations
TIME
(EDT)
5-day plot - Wind Direction
WDIR
 
5-day plot - Wind Speed
WSPD
kts
5-day plot - Wind Gust
GST
kts
5-day plot - Wave Height
WVHT
ft
5-day plot - Dominant Wave Period
DPD
sec
5-day plot - Average Wave Period
APD
sec
5-day plot - Mean Wave Direction
MWD
 
5-day plot - Atmospheric Pressure
PRES
in
5-day plot - Pressure Tendency
PTDY
in
5-day plot - Air Temperature
ATMP
°F
5-day plot - Water Temperature
WTMP
°F
5-day plot - Dew Point
DEWP
°F
5-day plot - Salinity
SAL
psu
5-day plot - Visibility
VIS
nmi
5-day plot - Tide (above MLLW)
TIDE
ft
2024-05-26 04:24 pm-------29.79- 59.0- 43.9---
2024-05-26 04:18 pmESE 8.0 12.0----29.79- 58.3- 44.1---
2024-05-26 04:12 pmESE 9.9 14.0----29.79- 59.0- 44.1---
2024-05-26 04:06 pmESE 8.0 12.0----29.79- 57.9- 44.8---
2024-05-26 04:00 pmESE 8.9 11.1----29.79-0.04------
2024-05-26 03:54 pmESE 8.9 13.0----29.80-------
2024-05-26 03:48 pmESE 7.0 14.0----29.80-------
2024-05-26 03:42 pmESE 8.0 13.0----29.80-------
2024-05-26 03:36 pmESE 8.0 9.9----29.80-------
2024-05-26 03:30 pmESE 7.0 12.0----29.80- 57.6- 45.5---
2024-05-26 03:24 pmESE 6.0 15.0----29.80- 57.4- 46.2---
2024-05-26 03:18 pm E 13.0 15.0----29.80-------
2024-05-26 03:12 pmESE 6.0 12.0----29.80-------
2024-05-26 03:06 pmESE 7.0 11.1----29.80-------
2024-05-26 03:00 pmESE 5.1 8.9----29.81-0.04 56.7- 46.6---
2024-05-26 02:54 pmESE 5.1 8.9----29.81- 57.2- 46.2---
2024-05-26 02:48 pm-------29.81- 58.5- 46.6---
2024-05-26 02:42 pm-------29.81- 59.7- 47.1---
2024-05-26 02:36 pm-------29.81- 57.6- 46.8---
2024-05-26 02:30 pmESE 7.0 9.9----29.81- 58.5- 46.6---
2024-05-26 02:24 pmESE 5.1 8.9----29.81- 59.0- 46.2---
2024-05-26 02:18 pmESE 6.0 8.9----29.81- 58.8- 45.7---
2024-05-26 02:12 pmESE 7.0 9.9----29.82- 58.1- 45.9---
2024-05-26 02:06 pmESE 7.0 11.1----29.82- 57.9- 44.8---
2024-05-26 02:00 pmESE 6.0 12.0------------
2024-05-26 01:54 pmESE 8.0 12.0------------
2024-05-26 01:48 pmESE 7.0 11.1----29.83- 62.1- 45.5---
2024-05-26 01:42 pmESE 8.0 11.1----29.83- 63.3- 45.7---
2024-05-26 01:36 pmESE 7.0 9.9----29.83- 62.1- 45.3---
2024-05-26 01:30 pmESE 8.0 11.1----29.83-------
2024-05-26 01:24 pmESE 6.0 8.9----29.83-------
2024-05-26 01:18 pmESE 7.0 8.9----29.83- 63.9- 45.7---
2024-05-26 01:12 pmESE 5.1 8.0----29.84- 62.8- 45.7---
2024-05-26 01:06 pmESE 5.1 8.0----29.84- 60.4- 45.7---
2024-05-26 01:00 pmESE 6.0 8.0----29.84-0.03 64.6- 46.2---
2024-05-26 12:54 pmESE 6.0 7.0----29.84- 59.4- 46.2---
2024-05-26 12:48 pmESE 6.0 8.0----29.84- 60.6- 45.9---
2024-05-26 12:42 pmESE 6.0 8.0----29.84- 60.8- 46.0---
2024-05-26 12:36 pmESE 5.1 7.0----29.84- 64.9- 46.6---
2024-05-26 12:30 pmESE 5.1 8.0----29.84- 62.8- 46.6---
2024-05-26 12:24 pmESE 6.0 8.0----29.84- 61.3- 46.6---
2024-05-26 12:18 pmESE 6.0 8.0----29.85- 61.5- 46.8---
2024-05-26 12:12 pmESE 7.0 8.9----29.85- 59.9- 46.4---
2024-05-26 12:06 pmESE 7.0 9.9----29.85- 60.8- 47.1---
2024-05-26 12:00 pmESE 6.0 11.1----29.85-0.01 59.7- 47.1---
2024-05-26 11:54 amESE 5.1 9.9----29.85- 59.9- 47.5---
2024-05-26 11:48 am E 8.9 11.1----29.85- 58.1- 46.6---
2024-05-26 11:42 amESE 5.1 8.9----29.86- 60.4- 47.5---
2024-05-26 11:36 amESE 5.1 8.0----29.86- 62.1- 47.8---
2024-05-26 11:30 amESE 6.0 8.9----29.86- 60.3- 47.3---
2024-05-26 11:24 amESE 5.1 8.9----29.87- 59.0- 47.3---
2024-05-26 11:18 am E 6.0 8.9----29.87- 56.7- 46.8---
2024-05-26 11:12 am E 5.1 7.0----29.87- 59.7- 47.8---
2024-05-26 11:06 amESE 4.1 7.0----29.87- 54.7- 47.1---
2024-05-26 11:00 am E 6.0 7.0----29.87+0.01 54.1- 46.0---
2024-05-26 10:54 amESE 6.0 8.0----29.87- 57.7- 47.7---
2024-05-26 10:48 amESE 5.1 8.0----29.87- 60.3- 48.0---
2024-05-26 10:42 amESE 5.1 8.0----29.87- 59.9- 48.4---
2024-05-26 10:36 amESE 6.0 8.9----29.87- 57.6- 48.2---
2024-05-26 10:30 amESE 7.0 8.9----29.87- 59.0- 48.6---
2024-05-26 10:24 amESE 7.0 8.9----29.87- 58.5- 48.4---
2024-05-26 10:18 amESE 6.0 9.9----29.87- 57.9- 48.4---
2024-05-26 10:12 amESE 7.0 9.9----29.87- 57.6- 48.4---
2024-05-26 10:06 amESE 7.0 9.9----29.87- 55.9- 48.0---
2024-05-26 10:00 amESE 7.0 9.9----29.87+0.03 55.0- 47.8---
2024-05-26 09:54 amESE 5.1 8.0----29.87- 53.8- 47.7---
2024-05-26 09:48 amESE 7.0 8.9----29.88- 54.7- 47.8---
2024-05-26 09:42 amESE 6.0 8.0----29.88- 55.0- 48.4---
2024-05-26 09:36 amESE 6.0 9.9----29.87- 54.5- 48.0---
2024-05-26 09:30 amESE 7.0 12.0----29.87-------
2024-05-26 09:24 amESE 7.0 11.1----29.87-------
2024-05-26 09:18 amESE 5.1 8.9----29.87-------
2024-05-26 09:12 amESE 4.1 7.0----29.87-------
2024-05-26 09:06 amESE 5.1 8.9----29.87-------
2024-05-26 09:00 amESE 6.0 8.9----29.87+0.02------
2024-05-26 08:54 amESE 7.0 9.9----29.87-------
2024-05-26 08:48 amESE 7.0 9.9----29.87- 52.9- 48.0---
2024-05-26 08:42 amESE 7.0 9.9----29.87- 53.6- 48.4---
2024-05-26 08:36 amESE 7.0 9.9----29.88- 54.3- 48.6---
2024-05-26 08:30 amESE 6.0 8.9----29.88- 54.1- 48.7---
2024-05-26 08:24 amESE 7.0 8.9----29.88- 53.4- 48.4---
2024-05-26 08:18 amESE 6.0 8.9----29.87- 53.2- 48.2---
2024-05-26 08:12 amESE 5.1 8.0----29.88- 53.2- 48.2---
2024-05-26 08:06 amESE 6.0 8.9----29.87- 52.7- 48.0---
2024-05-26 08:00 am-------29.86+0.00 52.5- 48.0---
2024-05-26 07:54 am-------29.86- 52.5- 48.0---
2024-05-26 07:48 amESE 8.0 11.1----29.86- 52.3- 47.8---
2024-05-26 07:42 amESE 8.0 11.1----29.85- 52.0- 47.8---
2024-05-26 07:36 amESE 6.0 8.0----29.85- 51.3- 47.8---
2024-05-26 07:30 amESE 6.0 8.0----29.85- 51.1- 47.8---
2024-05-26 07:24 amESE 6.0 9.9----29.85- 50.9- 47.8---
2024-05-26 07:18 amESE 8.0 11.1----29.84-------
2024-05-26 07:12 amESE 8.0 11.1----29.84-------
2024-05-26 07:06 amESE 6.0 11.1----29.84-------
2024-05-26 07:00 amESE 7.0 9.9----29.84+0.00------
2024-05-26 06:54 amESE 6.0 8.9----29.84-------
2024-05-26 06:48 amESE 6.0 8.0----29.84-------
2024-05-26 06:42 amESE 5.1 8.0----29.85-------
2024-05-26 06:36 amESE 5.1 7.0----29.85-------
2024-05-26 06:30 amESE 5.1 8.0----29.85- 48.9- 47.7---
2024-05-26 06:24 amESE 6.0 9.9----29.85- 48.6- 47.5---
2024-05-26 06:18 amESE 6.0 8.9----29.84-------
2024-05-26 06:12 amESE 7.0 9.9----29.84-------
2024-05-26 06:06 amESE 7.0 13.0----29.84-------
2024-05-26 06:00 amESE 8.0 12.0----29.85+0.02 50.0- 48.0---
2024-05-26 05:54 amESE 8.0 11.1----29.85- 50.2- 48.2---
2024-05-26 05:48 amESE 6.0 9.9----29.85- 50.4- 48.4---
2024-05-26 05:42 am SE 6.0 9.9----29.84- 50.4- 48.2---
2024-05-26 05:36 amESE 7.0 11.1----29.85- 50.4- 48.2---
2024-05-26 05:30 amESE 7.0 11.1----29.85- 50.4- 48.2---
2024-05-26 05:24 amESE 8.0 11.1----29.85- 50.4- 48.2---
2024-05-26 05:18 amESE 6.0 9.9----29.85- 50.4- 48.0---
2024-05-26 05:12 amESE 6.0 8.0----29.86- 50.0- 47.8---
2024-05-26 05:06 amESE 6.0 8.9----29.86- 50.4- 47.8---
2024-05-26 05:00 amESE 5.1 8.0----29.86+0.03 50.4- 48.0---
2024-05-26 04:54 am SE 5.1 8.0----29.85- 50.4- 48.2---
2024-05-26 04:48 amESE 6.0 8.9----29.85-------
2024-05-26 04:42 amESE 6.0 8.0----29.85-------
2024-05-26 04:36 amESE 5.1 8.0----29.85-------
2024-05-26 04:30 amESE 5.1 8.9----29.85- 49.8- 47.3---
2024-05-26 04:24 amESE 6.0 8.9----29.85- 49.5- 47.3---
2024-05-26 04:18 amESE 6.0 8.9----29.84- 49.3- 47.3---
2024-05-26 04:12 amESE 6.0 8.9----29.84- 49.3- 47.1---
2024-05-26 04:06 amESE 6.0 8.9----29.84- 49.6- 47.1---
2024-05-26 04:00 amESE 6.0 9.9----29.84+0.00 49.8- 46.9---
2024-05-26 03:54 amESE 7.0 8.9----29.84- 49.6- 46.9---
2024-05-26 03:48 amESE 6.0 9.9----29.83- 50.0- 47.1---
2024-05-26 03:42 am SE 6.0 11.1----29.84- 50.0- 46.9---
2024-05-26 03:36 amESE 7.0 9.9----29.83- 49.6- 46.8---
2024-05-26 03:30 am SE 5.1 8.0----29.83- 49.1- 46.6---
2024-05-26 03:24 amESE 5.1 8.0----29.83- 48.7- 46.4---
2024-05-26 03:18 amESE 5.1 8.9----29.83- 49.1- 46.2---
2024-05-26 03:12 amESE 6.0 8.9----29.83- 49.1- 46.2---
2024-05-26 03:06 amESE 6.0 11.1----29.83- 49.1- 46.2---
2024-05-26 03:00 amESE 7.0 9.9----29.83-0.01 49.1- 46.2---
2024-05-26 02:54 amESE 6.0 9.9----29.83- 49.5- 46.4---
2024-05-26 02:48 amESE 5.1 8.9----29.83- 49.6- 46.4---
2024-05-26 02:42 am SE 6.0 8.9----29.83- 49.8- 46.2---
2024-05-26 02:36 amESE 7.0 11.1----29.83- 49.8- 46.2---
2024-05-26 02:30 am SE 6.0 8.9----29.83- 49.8- 46.0---
2024-05-26 02:24 amESE 6.0 11.1----29.83- 50.2- 45.9---
2024-05-26 02:18 amESE 5.1 9.9----29.83- 50.4- 45.3---
2024-05-26 02:12 amESE 7.0 9.9----29.83- 50.7- 45.1---
2024-05-26 02:06 amESE 7.0 11.1----29.83- 50.9- 45.3---
2024-05-26 02:00 amESE 8.0 11.1----29.83-0.01 51.1- 45.0---
2024-05-26 01:54 amESE 6.0 11.1----29.83- 50.5- 45.0---
2024-05-26 01:48 amESE 8.0 11.1----29.83- 51.1- 45.0---
2024-05-26 01:42 amESE 6.0 8.9----29.83- 51.1- 45.1---
2024-05-26 01:36 amESE 6.0 9.9----29.84- 50.4- 45.1---
2024-05-26 01:30 amESE 5.1 7.0----29.84- 50.4- 45.1---
2024-05-26 01:24 am SE 2.9 6.0----29.84- 50.4- 45.0---
2024-05-26 01:18 am SE 2.9 5.1----29.85- 50.7- 45.1---
2024-05-26 01:12 amESE 4.1 5.1----29.84- 50.4- 45.1---
2024-05-26 01:06 am SE 2.9 4.1----29.85- 50.5- 45.3---
2024-05-26 01:00 am SE 4.1 7.0----29.85+0.02 50.5- 45.3---
2024-05-26 12:54 am SE 4.1 6.0----29.84- 50.5- 45.1---
2024-05-26 12:48 amESE 5.1 7.0----29.84- 50.9- 45.1---
2024-05-26 12:42 amESE 4.1 8.9----29.84- 50.7- 45.0---
2024-05-26 12:36 amESE 6.0 8.9----29.83- 50.4- 45.0---
2024-05-26 12:30 amESE 6.0 8.0----29.83- 50.7- 45.3---
2024-05-26 12:24 amESE 5.1 8.9----29.83- 50.9- 45.7---
2024-05-26 12:18 amESE 5.1 8.0----29.83- 51.1- 45.7---
2024-05-26 12:12 amESE 6.0 8.9----29.83- 50.9- 45.7---
2024-05-26 12:06 amESE 5.1 8.0----29.83- 50.5- 46.0---
2024-05-26 12:00 amESE 5.1 6.0----29.84+0.03 50.4- 45.9---
2024-05-25 11:54 pmESE 5.1 6.0----29.84- 50.0- 46.0---
2024-05-25 11:48 pmESE 4.1 6.0----29.84- 49.8- 45.9---
2024-05-25 11:42 pmESE 4.1 6.0----29.84- 49.6- 45.9---
2024-05-25 11:36 pmESE 5.1 6.0----29.84- 49.1- 46.0---
2024-05-25 11:30 pm E 5.1 6.0----29.84- 48.6- 45.9---
2024-05-25 11:24 pm E 5.1 5.1----29.84- 49.5- 46.8---
2024-05-25 11:18 pmESE 1.9 2.9----29.84- 49.6- 47.5---
2024-05-25 11:12 pmESE 1.9 2.9----29.84- 49.8- 48.0---
2024-05-25 11:06 pm- 0.0 1.9----29.84- 50.0- 47.7---
2024-05-25 11:00 pmESE 1.0 2.9----29.84+0.04 50.5- 48.0---
2024-05-25 10:54 pm E 1.9 4.1----29.84- 52.7- 47.8---
2024-05-25 10:48 pm SE 2.9 5.1----29.84- 55.0- 47.5---
2024-05-25 10:42 pm SE 2.9 5.1----29.84- 54.7- 47.7---
2024-05-25 10:36 pmESE 2.9 4.1----29.84- 54.7- 48.0---
2024-05-25 10:30 pm SE 1.9 4.1----29.84- 55.0- 47.8---
2024-05-25 10:24 pm SE 1.9 2.9----29.84- 54.7- 47.8---
2024-05-25 10:18 pmESE 1.0 1.9----29.84- 55.0- 48.2---
2024-05-25 10:12 pm SE 1.0 2.9----29.84- 54.9- 48.2---
2024-05-25 10:06 pm SE 1.0 1.9----29.83- 54.0- 48.6---
2024-05-25 10:00 pm- 0.0 1.9----29.83+0.03 54.1- 48.7---
2024-05-25 09:54 pm SE 1.0 2.9----29.83- 55.6- 48.9---
2024-05-25 09:48 pmESE 1.9 2.9----29.83- 56.1- 48.7---
2024-05-25 09:42 pm SE 1.0 1.9----29.83- 56.3- 48.7---
2024-05-25 09:36 pm SE 1.9 2.9----29.82- 56.1- 48.4---
2024-05-25 09:30 pm SE 1.0 1.9----29.82- 54.7- 48.0---
2024-05-25 09:24 pm- 0.0 1.9----29.82- 54.0- 45.3---
2024-05-25 09:18 pm- 0.0 1.0----29.82- 53.8- 45.1---
2024-05-25 09:12 pmSSE 1.0 1.9----29.82- 54.1- 43.7---
2024-05-25 09:06 pm- 0.0 1.0----29.81- 54.1- 43.2---
2024-05-25 09:00 pmSSE 1.0 2.9----29.81- 54.7- 43.0---
2024-05-25 08:54 pm SE 1.0 2.9----29.81- 54.3- 41.7---
2024-05-25 08:48 pmESE 1.9 2.9----29.80- 54.1- 40.1---
2024-05-25 08:42 pmESE 1.9 2.9----29.80- 53.8- 42.8---
2024-05-25 08:36 pmESE 2.9 4.1----29.81- 53.6- 42.3---
2024-05-25 08:30 pmESE 2.9 4.1----29.80- 53.1- 43.2---
2024-05-25 08:24 pmESE 2.9 4.1----29.80- 52.7- 43.5---
2024-05-25 08:18 pmESE 2.9 4.1----29.80- 52.2- 43.5---
2024-05-25 08:12 pmESE 2.9 5.1----29.80- 50.4- 44.2---
2024-05-25 08:06 pm E 4.1 5.1----29.80- 50.4- 44.2---
2024-05-25 08:00 pm E 4.1 6.0----29.80+0.00 51.1- 44.2---
2024-05-25 07:54 pm E 5.1 5.1----29.80- 52.9- 44.8---
2024-05-25 07:48 pm-------29.80- 55.6- 44.6---
2024-05-25 07:42 pm-------29.80- 59.5- 43.9---
2024-05-25 07:36 pm-------29.80- 59.9- 43.2---
2024-05-25 07:30 pm SE 2.9 5.1----29.80-------
2024-05-25 07:24 pmESE 4.1 6.0----29.80-------
2024-05-25 07:18 pmESE 5.1 7.0----29.80- 55.9- 45.5---
2024-05-25 07:12 pmESE 4.1 6.0----29.80- 56.1- 43.5---
2024-05-25 07:06 pmESE 1.9 4.1----29.80- 59.2- 43.5---
2024-05-25 07:00 pm- 0.0 1.0----29.80+0.00 60.1-----
2024-05-25 06:54 pm- 0.0 1.9----29.80- 57.7-----
2024-05-25 06:48 pm W 1.0 2.9----29.80-------
2024-05-25 06:42 pm- 0.0 1.9----29.80-------
2024-05-25 06:36 pm- 0.0 1.9----29.80-------
2024-05-25 06:30 pm- 0.0 2.9----29.80- 55.0- 42.8---
2024-05-25 06:24 pm W 1.9 2.9----29.80- 53.8- 41.9---
2024-05-25 06:18 pm NW 1.9 2.9----29.80- 52.7- 41.7---
2024-05-25 06:12 pm W 1.9 4.1----29.80- 53.6- 41.9---
2024-05-25 06:06 pm NW 2.9 4.1----29.80- 52.2- 41.2---
2024-05-25 06:00 pmWNW 1.9 4.1------ 52.3- 41.5---
2024-05-25 05:54 pm W 1.9 4.1------ 53.8- 41.9---
2024-05-25 05:48 pm W 1.0 4.1----29.80-------
2024-05-25 05:42 pmWNW 1.0 5.1----29.80-------
2024-05-25 05:36 pm W 1.9 5.1----29.80-------
2024-05-25 05:30 pm W 5.1 6.0----29.80- 52.9- 41.2---
2024-05-25 05:24 pm W 4.1 6.0----29.80- 52.9- 41.9---
2024-05-25 05:18 pm W 5.1 7.0----29.80- 52.2- 41.0---
2024-05-25 05:12 pm W 5.1 8.0----29.80- 51.6- 41.7---
2024-05-25 05:06 pm W 6.0 8.0----29.80- 51.8- 41.0---
2024-05-25 05:00 pm W 2.9 6.0----29.80+0.01 52.3- 41.4---
2024-05-25 04:54 pmWNW 4.1 7.0----29.80- 51.6- 40.8---